ロニオス彗星

359P/LONEOS (2007)

English version
Home page
Updated on October 21, 2017

---------------------------------------------------------------------

・ プロフィール

符号 359P/2007 RS41
発見日 2007年9月9日
発見光度 18.3等
発見者 Lowell Observatory Near-Earth Object Search

・ 軌道要素

Epoch 2007 Sept. 17.0 TT = JDT 2454360.5
T 2007 Sept. 10.56700 TT                                MPCW
q   3.1112228            (2000.0)            P               Q
n   0.09962082     Peri.  199.89794     +0.98137580     +0.16992475
a   4.6086030      Node   149.87755     -0.14302796     +0.95769915
e   0.3249098      Incl.   10.28403     -0.12823628     +0.23224538
P   9.89
From 41 observations 2007 Aug. 21-2017 Aug. 23, mean residual 0".6.

・ 光度変化

        m1 = 12.0 + 5 logΔ + 10.0 log r

---------------------------------------------------------------------

軌道要素はM.P.E.C. 2017-Q116に掲載されたものです。
光度グラフはComet for Windowsで作成したものです。

---------------------------------------------------------------------

Copyright(C) Seiichi Yoshida (comet@aerith.net). All rights reserved.